Regional Weather Roundup
Issued by NWS

Home | Current Version | Previous Version | Text Only | Print | Product List | Glossary On
Versions: 1 2 3 4 5 6 7 8 9 10 11 12 13 14 15 16 17 18 19 20 21 22 23 24 25 26 27 28 29 30 31 32 33 34 35 36 37 38 39 40 41 42 43 44 45 46 47 48 49 50
751
ASUS44 KLIX 190410
RWRLA
LOUISIANA WEATHER ROUNDUP
NATIONAL WEATHER SERVICE NEW ORLEANS LA
1000 PM CST THU DEC 18 2014

NOTE: "FAIR" INDICATES FEW OR NO CLOUDS BELOW 12,000 FEET WITH NO
      SIGNIFICANT WEATHER AND/OR OBSTRUCTIONS TO VISIBILITY.
      SKY/WX - SKY CONDITION AND SIGNIFICANT WEATHER.
      TMP - AIR TEMPERATURE.    DP   - DEWPOINT TEMPERATURE.
      RH  - RELATIVE HUMIDITY.  PRES - PRESSURE.
      HX  - HEAT INDEX.         WCI  - WIND CHILL INDEX.

*  THESE STATIONS ARE NOT NWS OR FAA STATIONS AND ARE NOT UNDER
   NWS QUALITY CONTROL.

LAZ040-048-061>063-065-066-069-190500-
SOUTHEAST LOUISIANA

CITY           SKY/WX    TMP DP  RH WIND       PRES   REMARKS
N.O. AUDUBON     N/A     59  56  90 MISG        N/A
N.O. INTL ARPT LGT RAIN  58  53  84 E8        30.13F
N.O. LAKEFRONT CLOUDY    59  53  80 E8        30.14S
N.O. DOWNTOWN* CLOUDY    57  50  77 NE7       30.14F
SLIDELL        CLOUDY    59  53  80 N8        30.15R
BATON ROUGE    CLOUDY    56  54  93 NE7       30.14R FOG
BOOTHVILLE     CLOUDY    60  58  92 NE5       30.13S
BELLE CHASSE   CLOUDY    57  56  96 NE7       30.13F
BOGALUSA*        N/A     53  50  89 NE5       30.18S
GALLIANO*      LGT RAIN  61  59  94 MISG      30.13S
NEW ROADS*     CLOUDY    55  54  97 NE5       30.14S
GONZALES*      CLOUDY    59  58  96 E6        30.13S
HAMMOND*       NOT AVBL
HOUMA*         CLOUDY    59  58  97 NE8       30.12S FOG
PORT FOURCHON* PTCLDY    66  63  88 NE7       30.15R

$$

LAZ041-044-053-054-190500-
SOUTHWEST LOUISIANA

CITY           SKY/WX    TMP DP  RH WIND       PRES   REMARKS
LAKE CHARLES   CLOUDY    56  52  86 NE10      30.10S
LAFAYETTE      CLOUDY    58  53  84 NE5       30.12S
PATTERSON      CLOUDY    61  57  88 E7        30.12S
SALT POINT       N/A     63  59  87 E3        30.11R
NEW IBERIA     CLOUDY    62  55  77 E6        30.12R
CHENAULT AIRPK CLOUDY    55  52  91 NE9       30.11S

$$

LAZ027-028-190500-
CENTRAL LOUISIANA

CITY           SKY/WX    TMP DP  RH WIND       PRES   REMARKS
FORT POLK      CLOUDY    52  50  93 E7        30.12S
ALEXANDRIA INT CLOUDY    52  49  89 NE5       30.13S
ALEXANDRIA     CLOUDY    52  49  89 VRB3      30.15S

$$

LAZ001-002-190500-
NORTHWEST LOUISIANA

CITY           SKY/WX    TMP DP  RH WIND       PRES   REMARKS
SHREVEPORT     CLOUDY    51  47  86 E7        30.16S
BARKSDALE AFB  NOT AVBL
DTN SHREVEPORT CLOUDY    50  46  86 N5        30.18R

$$

LAZ014-016-190500-
NORTHEAST LOUISIANA

CITY           SKY/WX    TMP DP  RH WIND       PRES   REMARKS
MONROE         MOCLDY    45  44  97 NE6       30.19S
TALLULAH       CLOUDY    45  43  93 E3        30.19R

$$




USA.gov is the U.S. government's official web portal to all federal, state and local government web resources and services.